This demonstration page uses our WeatherBlox Daily Observations layout. Learn more.

Left ArrowRight Arrow

Hourly Observations for May 28, 2020

Temp ( °F °C ) Dew Point ( °F °C ) Humidity (%) Winds ( mph kmh ) Pressure ( in mb ) Visibility ( mi km ) Precip ( " mm )
12:01 am 00:01 Partly Cloudy with Mist and Fog 58 14.4 58 14.4 100 100 NW 3 6 29.86 1011 2 3 0.00 0.00
12:05 am 00:05 Mostly Cloudy with Mist and Fog 58 14.4 58 14.4 100 100 Calm 29.86 1011 1 1 0.00 0.00
12:34 am 00:34 Mostly Cloudy with Fog 57 13.9 57 13.9 100 100 W 3 6 29.86 1011 1 1 0.00 0.00
12:52 am 00:52 Mostly Cloudy with Fog 58 14.4 58 14.4 100 100 Calm 29.85 1011 1 1 0.00 0.00
1:16 am 01:16 Mostly Cloudy with Fog 57 13.9 57 13.9 100 100 Calm 29.86 1011 0 0 0.00 0.00
1:40 am 01:40 Mostly Cloudy with Mist and Fog 57 13.9 57 13.9 100 100 Calm 29.86 1011 1 2 0.00 0.00
1:52 am 01:52 Mostly Cloudy with Mist and Fog 57 13.9 57 13.9 100 100 Calm 29.86 1011 2 3 0.00 0.00
2:04 am 02:04 Mostly Cloudy with Mist and Fog 57 13.9 57 13.9 100 100 Calm 29.87 1012 4 6 0.00 0.00
2:28 am 02:28 Cloudy with Mist and Fog 57 13.9 57 13.9 100 100 Calm 29.87 1012 2 3 0.00 0.00
2:39 am 02:39 Mostly Cloudy with Mist and Fog 57 13.9 57 13.9 100 100 Calm 29.87 1012 1 1 0.00 0.00
2:52 am 02:52 Mostly Cloudy with Mist and Fog 57 13.9 56 13.3 96 96 Calm 29.86 1011 1 2 0.00 0.00
3:07 am 03:07 Mostly Cloudy with Fog 56 13.3 56 13.3 100 100 Calm 29.88 1012 1 1 0.00 0.00
3:22 am 03:22 Mostly Cloudy with Fog 56 13.3 56 13.3 100 100 NW 3 6 29.88 1012 1 1 0.00 0.00
3:33 am 03:33 Mostly Cloudy with Fog 56 13.3 56 13.3 100 100 Calm 29.88 1012 0 0 0.00 0.00
3:52 am 03:52 Mostly Cloudy with Fog 56 13.3 56 13.3 100 100 Calm 29.85 1011 0 0 0.00 0.00
4:52 am 04:52 Mostly Cloudy with Fog 57 13.9 57 13.9 100 100 NNW 3 6 29.85 1011 1 1 0.00 0.00
5:07 am 05:07 Mostly Cloudy with Fog 58 14.4 58 14.4 100 100 Calm 29.86 1011 0 0 0.00 0.00
5:52 am 05:52 Mostly Cloudy with Fog 58 14.4 58 14.4 100 100 Calm 29.85 1011 0 0 0.00 0.00
6:52 am 06:52 Mostly Cloudy with Fog 59 15 59 15 100 100 Calm 29.88 1012 0 0 0.00 0.00
7:52 am 07:52 Mostly Cloudy with Fog 61 16.1 61 16.1 100 100 SSW 3 6 29.89 1012 0 0 0.00 0.00
8:39 am 08:39 Mostly Cloudy with Fog 62 16.7 61 16.1 96 96 NW 3 6 29.90 1013 1 1 0.00 0.00
8:52 am 08:52 Mostly Cloudy with Mist and Fog 62 16.7 62 16.7 100 100 WNW 5 7 29.91 1013 1 1 0.00 0.00
8:58 am 08:58 Cloudy with Mist and Fog 62 16.7 62 16.7 100 100 NW 5 7 29.91 1013 2 3 0.00 0.00
9:06 am 09:06 Cloudy with Mist and Fog 63 17.2 62 16.7 97 97 WNW 3 6 29.91 1013 6 10 0.00 0.00
9:24 am 09:24 Cloudy with Mist and Fog 63 17.2 63 17.2 100 100 NW 7 11 29.91 1013 2 3 0.00 0.00
9:45 am 09:45 Cloudy with Mist and Fog 64 17.8 64 17.8 100 100 NW 5 7 29.90 1013 6 10 0.00 0.00
9:52 am 09:52 Cloudy 65 18.3 64 17.8 97 97 WNW 5 7 29.91 1013 10 16 0.00 0.00
9:59 am 09:59 Cloudy 65 18.3 63 17.2 93 93 WNW 3 6 29.90 1013 10 16 0.00 0.00
10:52 am 10:52 Cloudy 67 19.4 63 17.2 87 87 NNW 3 6 29.91 1013 10 16 0.00 0.00
11:19 am 11:19 Cloudy 69 20.6 64 17.8 84 84 NW 3 6 29.90 1013 10 16 0.00 0.00
11:43 am 11:43 Cloudy 71 21.7 65 18.3 81 81 NNW 5 7 29.90 1012 10 16 0.00 0.00
11:52 am 11:52 Mostly Cloudy 70 21.1 64 17.8 82 82 N 5 7 29.91 1013 10 16 0.00 0.00
12:45 pm 12:45 Partly Cloudy 71 21.7 64 17.8 79 79 W 7 11 29.89 1012 10 16 0.00 0.00
12:52 pm 12:52 Partly Cloudy 71 21.7 63 17.2 76 76 W 5 7 29.90 1013 10 16 0.00 0.00
1:52 pm 13:52 Mostly Sunny 73 22.8 64 17.8 74 74 W 8 13 29.89 1012 10 16 0.00 0.00
2:52 pm 14:52 Mostly Cloudy 74 23.3 63 17.2 69 69 WSW 8 13 29.88 1012 10 16 0.00 0.00
3:52 pm 15:52 Cloudy 71 21.7 63 17.2 76 76 W 13 20 29.88 1012 10 16 0.00 0.00
4:49 pm 16:49 Cloudy 68 20 64 18 88 88 NW 10 17 29.88 1012 10 16 0.00 0.00
4:52 pm 16:52 Cloudy 68 20 64 17.8 87 87 NW 8 13 29.90 1012 10 16 0.00 0.00
5:52 pm 17:52 Cloudy 68 20 63 17.2 84 84 NW 14 22 29.92 1013 10 16 0.00 0.00
6:00 pm 18:00 Cloudy 68 20 63 17.2 84 84 NW 13 20 29.90 1013 10 16 0.00 0.00
6:09 pm 18:09 Cloudy 68 20 63 17.2 84 84 NW 9 15 29.90 1013 10 16 0.00 0.00
6:47 pm 18:47 Partly Cloudy 66 19 63 17 88 88 NW 14 22 29.92 1013 10 16 0.00 0.00
6:52 pm 18:52 Mostly Sunny 67 19.4 62 16.7 84 84 NW 15 24 29.93 1014 10 16 0.00 0.00
7:52 pm 19:52 Partly Cloudy 63 17.2 60 15.6 90 90 WNW 6 9 29.94 1014 10 16 0.00 0.00
8:52 pm 20:52 Mostly Clear 62 16.7 60 15.6 93 93 WNW 5 7 29.95 1014 10 16 0.00 0.00
9:52 pm 21:52 Cloudy 63 17.2 61 16.1 93 93 W 8 13 29.96 1015 10 16 0.00 0.00
10:08 pm 22:08 Cloudy 63 17.2 61 16.1 93 93 W 9 15 29.97 1015 10 16 0.00 0.00
10:45 pm 22:45 Cloudy 64 17.8 62 16.7 93 93 NW 12 19 29.96 1015 10 16 0.00 0.00
10:52 pm 22:52 Cloudy 64 17.8 62 16.7 93 93 NW 14 22 29.96 1015 10 16 0.00 0.00
11:07 pm 23:07 Cloudy 64 17.8 62 16.7 93 93 NNW 12 19 29.96 1015 10 16 0.00 0.00
11:48 pm 23:48 Cloudy 64 18 61 16 88 88 N 16 26 29.98 1015 10 16 0.00 0.00
11:52 pm 23:52 Cloudy 64 17.8 61 16.1 90 90 N 14 22 29.99 1016 10 16 0.00 0.00

Powered by AerisWeather